Weather History for Massena, NY

Change the Weather History Date:

Sunday, September 8, 2013

  Actual Average Record
Temperature  
Mean Temperature 52 °F 61 °F  
Max Temperature 62 °F 73 °F 92 °F (2002)
Min Temperature 41 °F 50 °F 33 °F (1952)
Degree Days  
Heating Degree Days 13 5  
Month to date heating degree days 44 33  
Since 1 July heating degree days 100 108  
Cooling Degree Days 0 1  
Month to date cooling degree days 13 13  
Year to date cooling degree days 400 349  
Growing Degree Days 2 (Base 50)    
Moisture  
Dew Point 46 °F    
Average Humidity 70    
Maximum Humidity 97    
Minimum Humidity 42    
Precipitation  
Precipitation 0.05 in 0.11 in 1.34 in (2005)
Month to date precipitation 0.75 0.92  
Year to date precipitation 23.87 23.46  
Sea Level Pressure  
Sea Level Pressure 29.98 in    
Wind  
Wind Speed 7 mph (NW)    
Max Wind Speed 17 mph    
Max Gust Speed 25 mph    
Visibility 10 miles    
Events Rain    
T = Trace of Precipitation, MM = Missing Value Source: NWS Daily Summary

Daily Weather History Graph

Daily Weather History Graph

Search for Another Location

Airport:

Trip Planner

Search our weather history database for the weather conditions in past years. The results will help you decide how hot, cold, wet, or windy it might be!

Date:

Astronomy

Sep. 08, 2013 Rise Set
Actual Time 6:30 AM EDT 7:23 PM EDT
Civil Twilight 6:00 AM EDT 7:52 PM EDT
Nautical Twilight 5:24 AM EDT 8:28 PM EDT
Astronomical Twilight 4:47 AM EDT 9:05 PM EDT
Moon 9:55 AM EDT (9/8) 8:45 PM EDT (9/8)
Length of Visible Light 13h 52m
Length of Day
12h 52m
Waxing Crescent, 11% of the Moon is Illuminated
Sep 8
Waxing Crescent
Sep 12
First Quarter
Sep 19
Full
Sep 26
Last Quarter
Oct 4
New

Hourly Weather History & Observations

Time (EDT) Temp. Dew Point Humidity Pressure Visibility Wind Dir Wind Speed Gust Speed Precip Events Conditions
12:53 AM 60.1 °F 59.0 °F 96% 29.84 in 10.0 mi SW 5.8 mph - 0.00 in   Overcast
1:53 AM 60.1 °F 59.0 °F 96% 29.83 in 9.0 mi SW 8.1 mph - 0.00 in   Overcast
2:08 AM 60.8 °F 59.0 °F 94% 29.83 in 9.0 mi SW 5.8 mph - 0.00 in Rain Light Rain
2:53 AM 62.1 °F 59.0 °F 90% 29.83 in 8.0 mi NW 11.5 mph 17.3 mph 0.01 in Rain Light Rain
3:03 AM 60.8 °F 57.2 °F 88% 29.83 in 10.0 mi NNW 11.5 mph 19.6 mph 0.00 in Rain Light Rain
3:27 AM 59.0 °F 53.6 °F 82% 29.85 in 10.0 mi NNW 12.7 mph 20.7 mph 0.01 in Rain Light Rain
3:53 AM 57.0 °F 52.0 °F 83% 29.88 in 10.0 mi NNW 11.5 mph - 0.02 in Rain Light Rain
4:53 AM 55.9 °F 48.9 °F 77% 29.89 in 10.0 mi NNW 5.8 mph 16.1 mph 0.02 in   Overcast
5:53 AM 53.1 °F 46.9 °F 80% 29.92 in 10.0 mi NNW 4.6 mph - N/A   Scattered Clouds
6:53 AM 52.0 °F 45.0 °F 77% 29.95 in 10.0 mi NW 5.8 mph - N/A   Clear
7:53 AM 54.0 °F 45.0 °F 72% 29.97 in 10.0 mi NNW 6.9 mph - N/A   Clear
8:53 AM 55.0 °F 45.0 °F 69% 29.99 in 10.0 mi North 9.2 mph 18.4 mph N/A   Clear
9:53 AM 55.9 °F 44.1 °F 64% 30.01 in 10.0 mi NNW 9.2 mph - N/A   Partly Cloudy
10:53 AM 59.0 °F 45.0 °F 60% 30.01 in 10.0 mi WNW 10.4 mph 18.4 mph N/A   Partly Cloudy
11:53 AM 59.0 °F 43.0 °F 55% 30.02 in 10.0 mi NW 10.4 mph 17.3 mph N/A   Scattered Clouds
12:53 PM 60.1 °F 39.0 °F 46% 30.03 in 10.0 mi NNW 12.7 mph 19.6 mph N/A   Scattered Clouds
1:53 PM 62.1 °F 42.1 °F 48% 30.04 in 10.0 mi WNW 11.5 mph 18.4 mph N/A   Clear
2:53 PM 62.1 °F 39.9 °F 44% 30.04 in 10.0 mi WNW 13.8 mph 20.7 mph N/A   Clear
3:53 PM 61.0 °F 37.0 °F 41% 30.04 in 10.0 mi NNW 12.7 mph 24.2 mph N/A   Clear
4:53 PM 61.0 °F 39.0 °F 44% 30.04 in 10.0 mi NW 8.1 mph - N/A   Clear
5:53 PM 61.0 °F 39.0 °F 44% 30.06 in 10.0 mi NNW 10.4 mph - N/A   Partly Cloudy
6:53 PM 57.9 °F 39.0 °F 49% 30.07 in 10.0 mi NW 6.9 mph - N/A   Clear
7:53 PM 50.0 °F 42.1 °F 74% 30.09 in 10.0 mi NNW 3.5 mph - N/A   Clear
8:53 PM 46.0 °F 41.0 °F 83% 30.10 in 10.0 mi Calm Calm - N/A   Clear
9:53 PM 44.1 °F 42.1 °F 93% 30.12 in 10.0 mi Calm Calm - N/A   Clear
10:53 PM 42.1 °F 41.0 °F 96% 30.12 in 10.0 mi Calm Calm - N/A   Clear
11:53 PM 42.1 °F 39.9 °F 92% 30.12 in 10.0 mi Calm Calm - N/A   Clear